[[{"header":{"parameterUnit":"m.s-1","parameterCategory":1,"la1":30.2991,"la2":30.254,"lo1":-89.0895,"lo2":-89.0444,"dy":0.0017,"dx":0.0017,"nx":28,"ny":28,"refTime":"2024-03-31T03:00:00:Z","depth":0,"parameterNumber":2,"parameterNumberName":"U-component_of_WINDS"},"data":[0,0,0,0,0,0,0,0,0,0,0,0,0,0,0,0,0,0,0,0,0,0,0,0,0,0,0,0,0,0,0,0,0,0,0,0,0,0,0,0,0,0,0,0,0,0,0,0,0,0,0,0,0,0,0,0,0,0,-2.1532,-2.1532,0,-2.1533,-2.1533,-2.1533,-2.1487,-2.1486,-2.1484,-2.1483,-2.1484,-2.1485,-2.1486,0,0,0,0,0,0,0,0,0,0,0,0,0,-2.1491,-2.1492,-2.1532,-2.1532,-2.1532,-2.1533,-2.1533,-2.1533,-2.1487,-2.1486,-2.1484,-2.1483,-2.1483,-2.1485,-2.1486,0,0,0,0,0,0,0,0,0,0,0,0,0,-2.1502,-2.1492,-2.1532,-2.151,-2.1507,-2.1533,-2.1533,-2.1533,-2.1487,-2.1486,-2.1484,-2.1482,-2.1483,-2.1485,-2.1486,-2.1534,0,0,-2.1492,-2.1492,0,0,0,0,0,0,0,0,-2.1502,-2.1504,-2.1513,-2.1511,-2.1509,-2.1508,-2.1519,-2.1533,-2.1488,-2.1495,-2.1483,-2.1481,-2.1493,-2.1494,-2.1498,-2.1534,-2.1534,-2.1492,-2.1493,-2.1494,-2.1494,0,0,0,0,0,0,0,-2.1501,-2.1503,-2.1533,-2.1513,-2.1511,-2.1499,-2.1499,-2.1521,-2.1504,-2.1494,-2.1491,-2.1492,-2.1492,-2.1497,-2.1498,-2.1534,-2.1492,-2.1493,-2.1494,-2.1495,-2.1608,-2.161,0,0,0,0,0,0,-2.1503,-2.1503,-2.1533,-2.1533,-2.1501,-2.1501,-2.1501,-2.151,-2.1504,-2.1501,-2.1493,-2.1489,-2.1495,-2.1496,-2.1498,-2.1552,-2.1494,-2.1495,-2.1496,-2.1606,-2.1608,-2.161,0,0,0,0,0,0,-2.1503,-2.1506,-2.1533,-2.1517,-2.1519,-2.1504,-2.1515,-2.1511,-2.1516,-2.1503,-2.15,-2.1501,-2.1493,-2.1495,-2.1525,-2.1551,-2.1496,-2.1498,-2.1604,-2.1607,-2.1609,-2.1661,0,0,0,0,0,0,-2.1502,-2.1506,-2.1524,-2.1518,-2.1521,-2.156,-2.1517,-2.1513,-2.1519,-2.1514,-2.151,-2.1507,-2.1492,-2.1523,-2.1527,-2.1552,-2.1499,-2.1601,-2.1605,-2.1608,-2.1657,-2.1665,-2.1672,0,0,0,0,0,-2.15,-2.1539,-2.1525,-2.1529,-2.1542,-2.1562,-2.1563,-2.1544,-2.1521,-2.1539,-2.1531,-2.1508,-2.1548,-2.1526,-2.153,-2.1557,-2.1599,-2.1604,-2.1608,-2.1653,-2.1664,-2.1672,0,0,0,0,0,0,-2.1548,-2.1537,-2.1522,-2.156,-2.1562,-2.1554,-2.1575,-2.1556,-2.1565,-2.156,-2.1537,-2.1536,-2.1569,-2.1566,-2.1542,-2.1602,-2.157,-2.1575,-2.1602,-2.1612,-2.162,-2.1619,-2.15,0,0,0,0,0,-2.1564,-2.158,-2.157,-2.1604,-2.1606,-2.1591,-2.1598,-2.1584,-2.1585,-2.1586,-2.158,-2.1582,-2.1595,-2.1604,-2.1615,-2.1657,-2.1655,-2.1678,-2.1685,-2.1692,-2.1696,-2.1717,-2.1726,-2.1625,-2.1625,-2.1625,0,0,-2.1595,-2.1591,-2.1602,-2.1614,-2.1613,-2.1631,-2.1592,-2.1612,-2.1624,-2.1589,-2.1615,-2.1612,-2.1613,-2.1648,-2.1664,-2.1647,-2.1724,-2.1698,-2.1703,-2.1703,-2.1722,-2.1732,-2.1741,-2.1628,-2.1627,-2.1627,0,0,-2.1659,-2.1659,-2.1687,-2.1688,-2.1688,-2.1678,-2.1685,-2.1679,-2.1675,-2.1703,-2.1676,-2.1691,-2.1714,-2.1715,-2.1719,-2.1786,-2.1764,-2.1791,-2.1831,-2.1851,-2.1859,-2.1866,-2.1888,-2.1896,-2.1795,-2.1795,-2.1796,0,-2.1698,-2.1722,-2.1703,-2.1725,-2.173,-2.17,-2.1727,-2.1729,-2.1734,-2.1738,-2.172,-2.1748,-2.1746,-2.1781,-2.1797,-2.1802,-2.1809,-2.1789,-2.186,-2.1866,-2.1872,-2.1893,-2.1902,-2.1798,-2.1798,-2.1798,-2.1798,0,-2.1769,-2.1787,-2.1809,-2.1814,-2.1822,-2.1847,-2.1831,-2.1842,-2.1828,-2.1819,-2.1847,-2.1845,-2.1854,-2.1862,-2.1849,-2.1895,-2.1885,-2.1864,-2.183,-2.1885,-2.1904,-2.1912,-2.1803,-2.1802,-2.1801,-2.18,0,0,-2.1862,-2.1856,-2.1865,-2.1866,-2.1865,-2.1878,-2.1902,-2.1912,-2.192,-2.1925,-2.1943,-2.1965,-2.1945,-2.1949,-2.1936,-2.1954,-2.2005,-2.193,-2.193,-2.1942,-2.2055,-2.2069,-2.2078,-2.1992,-2.1993,-2.1994,-2.2054,0,-2.1923,-2.1962,-2.1946,-2.1986,-2.2002,-2.1974,-2.1995,-2.1996,-2.199,-2.2002,-2.1995,-2.2009,-2.1983,-2.1985,-2.2003,-2.1995,-2.2027,-2.1991,-2.2007,-2.2008,-2.2005,-2.2089,-2.2104,-2.216,-2.2061,-2.2063,-2.2064,0,-2.1999,-2.2006,-2.2048,-2.2044,-2.205,-2.2069,-2.2076,-2.2089,-2.209,-2.2084,-2.2089,-2.2072,-2.2094,-2.2063,-2.2093,-2.2069,-2.2075,-2.2073,-2.2074,-2.2073,-2.2037,-2.2087,-2.2177,-2.2185,-2.2076,-2.2075,-2.2074,0,-2.206,-2.2081,-2.2108,-2.2111,-2.2107,-2.2121,-2.212,-2.2119,-2.2126,-2.2133,-2.2137,-2.2147,-2.2152,-2.216,-2.2145,-2.2124,-2.2177,-2.2145,-2.2172,-2.2172,-2.2182,-2.2181,-2.2272,-2.219,-2.219,-2.219,-2.219,0,-2.2129,-2.2155,-2.2136,-2.2152,-2.2181,-2.2163,-2.2192,-2.2188,-2.2188,-2.2203,-2.218,-2.2195,-2.2176,-2.2189,-2.2178,-2.2204,-2.2207,-2.2202,-2.2198,-2.2203,-2.2203,-2.2204,-2.2199,-2.2192,-2.2192,-2.2191,-2.2191,0,-2.22,-2.2189,-2.2216,-2.2211,-2.221,-2.2232,-2.2227,-2.2242,-2.2234,-2.2254,-2.2257,-2.2246,-2.226,-2.2247,-2.2261,-2.2253,-2.2287,-2.2279,-2.2286,-2.2283,-2.231,-2.2307,-2.2403,-2.2414,-2.2328,-2.2328,-2.2329,0,-2.2244,-2.2263,-2.226,-2.2268,-2.2269,-2.2283,-2.229,-2.2274,-2.2282,-2.2285,-2.2299,-2.2312,-2.232,-2.2344,-2.2337,-2.2347,-2.2338,-2.2371,-2.2339,-2.2342,-2.2335,-2.2333,-2.2335,-2.2376,-2.2377,-2.2378,-2.2379,0,-2.2321,-2.2314,-2.2325,-2.2334,-2.2343,-2.2349,-2.2354,-2.2362,-2.2345,-2.2356,-2.237,-2.2377,-2.2391,-2.2403,-2.2411,-2.241,-2.2391,-2.239,-2.2396,-2.2399,-2.2401,-2.2398,-2.2301,-2.2387,-2.2386,-2.2385,-2.2385,-2.2385,-2.2378,-2.2394,-2.2394,-2.2406,-2.2408,-2.2413,-2.2427,-2.2421,-2.2433,-2.2442,-2.2433,-2.2449,-2.245,-2.2459,-2.2461,-2.2473,-2.2459,-2.2469,-2.2471,-2.2473,-2.2476,-2.2402,-2.2475,-2.2475,-2.2475,-2.2475,-2.2474,0,-2.2452,-2.2451,-2.2463,-2.247,-2.248,-2.2463,-2.2467,-2.2477,-2.2492,-2.2494,-2.2504,-2.252,-2.2531,-2.2526,-2.2536,-2.2547,-2.2539,-2.255,-2.2548,-2.2547,-2.2489,-2.2481,-2.2556,-2.2556,-2.2556,-2.2556,-2.2556,-2.2556,-2.2492,-2.2517,-2.2511,-2.2536,-2.2535,-2.2551,-2.2555,-2.2559,-2.2561,-2.258,-2.2589,-2.2586,-2.2585,-2.2595,-2.2605,-2.2603,-2.2606,-2.262,-2.2615,-2.256,-2.2552,-2.2544,-2.2536,-2.2622,-2.2622,-2.2672,-2.2673,-2.2673]},{"header":{"parameterUnit":"m.s-1","parameterCategory":1,"la1":30.2991,"la2":30.254,"lo1":-89.0895,"lo2":-89.0444,"dy":0.0017,"dx":0.0017,"nx":28,"ny":28,"refTime":"2024-03-31T03:00:00:Z","depth":0,"parameterNumber":3,"parameterNumberName":"V-component_of_WINDS"},"data":[0,0,0,0,0,0,0,0,0,0,0,0,0,0,0,0,0,0,0,0,0,0,0,0,0,0,0,0,0,0,0,0,0,0,0,0,0,0,0,0,0,0,0,0,0,0,0,0,0,0,0,0,0,0,0,0,0,0,3.2221,3.2222,0,3.2266,3.2267,3.2267,3.234,3.2342,3.2343,3.2344,3.239,3.239,3.239,0,0,0,0,0,0,0,0,0,0,0,0,0,3.22,3.22,3.2221,3.2222,3.2222,3.2266,3.2267,3.2267,3.234,3.2342,3.2343,3.2345,3.239,3.239,3.239,0,0,0,0,0,0,0,0,0,0,0,0,0,3.2223,3.22,3.2221,3.2264,3.2268,3.2266,3.2267,3.2268,3.234,3.2342,3.2344,3.2346,3.239,3.239,3.239,3.2349,0,0,3.239,3.239,0,0,0,0,0,0,0,0,3.2222,3.2224,3.2257,3.2261,3.2266,3.23,3.2276,3.2295,3.2339,3.2312,3.2344,3.2347,3.2358,3.2361,3.2365,3.2351,3.2353,3.239,3.239,3.239,3.239,0,0,0,0,0,0,0,3.222,3.2223,3.2239,3.2257,3.2263,3.2281,3.2287,3.228,3.2323,3.2315,3.232,3.2325,3.2361,3.2365,3.2367,3.2354,3.239,3.239,3.239,3.239,3.2314,3.2312,0,0,0,0,0,0,3.2212,3.2221,3.2237,3.224,3.2248,3.228,3.2286,3.2287,3.2324,3.2331,3.2323,3.2328,3.2364,3.2367,3.2368,3.2327,3.239,3.239,3.239,3.2316,3.2314,3.2312,0,0,0,0,0,0,3.2211,3.2213,3.2236,3.2232,3.2236,3.2278,3.2278,3.2287,3.2291,3.233,3.2338,3.2319,3.2366,3.2368,3.2355,3.2329,3.239,3.239,3.2318,3.2315,3.2313,3.224,0,0,0,0,0,0,3.221,3.2212,3.2196,3.2231,3.2236,3.222,3.2277,3.2286,3.229,3.2297,3.2328,3.2335,3.2367,3.2354,3.2355,3.233,3.2389,3.2321,3.2317,3.2314,3.2245,3.2235,3.2226,0,0,0,0,0,3.2209,3.2173,3.2195,3.2197,3.2217,3.2218,3.2221,3.2259,3.2288,3.2273,3.2299,3.2334,3.2331,3.2352,3.2353,3.2328,3.2323,3.2318,3.2314,3.2249,3.2237,3.2227,0,0,0,0,0,0,3.2133,3.2178,3.2203,3.2177,3.2194,3.2231,3.2213,3.2245,3.2253,3.2259,3.2306,3.2312,3.2293,3.2309,3.2331,3.2293,3.2333,3.2328,3.2283,3.2272,3.2263,3.226,3.2389,0,0,0,0,0,3.2114,3.2111,3.215,3.2123,3.213,3.217,3.2172,3.22,3.2219,3.2226,3.2251,3.2268,3.2271,3.2272,3.2277,3.2248,3.2257,3.2231,3.2222,3.2214,3.221,3.2199,3.2189,3.2297,3.2297,3.2297,0,0,3.2073,3.2097,3.2092,3.2109,3.2125,3.2122,3.2175,3.2169,3.2167,3.2225,3.2214,3.2233,3.2255,3.2234,3.2226,3.2247,3.2182,3.2208,3.2202,3.2202,3.2193,3.2183,3.2174,3.2294,3.2295,3.2295,0,0,3.1997,3.2014,3.1995,3.2011,3.2035,3.2062,3.2058,3.2091,3.2106,3.2096,3.214,3.214,3.2143,3.2159,3.2167,3.2101,3.2134,3.2101,3.2053,3.2041,3.2033,3.2026,3.2005,3.1996,3.2096,3.2096,3.2096,0,3.1943,3.194,3.1981,3.1973,3.1981,3.2034,3.2016,3.2029,3.2053,3.2058,3.2081,3.209,3.2108,3.2093,3.2077,3.2081,3.2079,3.2098,3.2031,3.2024,3.2018,3.1998,3.199,3.2092,3.2093,3.2093,3.2093,0,3.1874,3.1871,3.1853,3.1877,3.1882,3.1868,3.191,3.191,3.1938,3.1964,3.1954,3.1979,3.1992,3.199,3.2016,3.1979,3.1992,3.2022,3.2063,3.2003,3.1985,3.1978,3.2086,3.2088,3.2089,3.209,0,0,3.175,3.1799,3.1792,3.1805,3.1837,3.1836,3.1826,3.184,3.184,3.1856,3.185,3.1854,3.1884,3.1893,3.1922,3.1912,3.1862,3.1944,3.1945,3.193,3.1826,3.1804,3.1795,3.1884,3.1883,3.1882,3.1825,0,3.1683,3.1669,3.1708,3.1685,3.1685,3.1737,3.1729,3.1748,3.1772,3.1776,3.1803,3.1806,3.1842,3.1849,3.1841,3.1869,3.1842,3.1874,3.1881,3.1881,3.1875,3.1785,3.1761,3.1706,3.1818,3.1817,3.1816,0,3.1601,3.1615,3.1592,3.1629,3.163,3.1622,3.1639,3.1641,3.1665,3.1684,3.1696,3.1731,3.1726,3.1765,3.176,3.1781,3.1786,3.1801,3.18,3.1803,3.1845,3.1788,3.169,3.1682,3.1805,3.1806,3.1807,0,3.1517,3.1529,3.1518,3.1527,3.1568,3.1562,3.1579,3.1605,3.1612,3.1627,3.1632,3.1646,3.1654,3.1664,3.1703,3.1727,3.1694,3.1736,3.1711,3.171,3.1703,3.1703,3.1606,3.1703,3.1703,3.1703,3.1703,0,3.1438,3.1423,3.1481,3.1474,3.146,3.1505,3.149,3.1512,3.1535,3.1535,3.158,3.1579,3.1629,3.1634,3.1664,3.1658,3.166,3.1676,3.1685,3.1673,3.1671,3.1678,3.1684,3.1701,3.1701,3.1702,3.1702,0,3.1341,3.1379,3.1371,3.1412,3.1422,3.141,3.1445,3.1442,3.1469,3.1469,3.1471,3.1515,3.1523,3.1563,3.158,3.1601,3.1584,3.16,3.1576,3.1582,3.1557,3.1559,3.1462,3.1453,3.1553,3.1552,3.1551,0,3.1289,3.1279,3.132,3.1323,3.1339,3.1343,3.1351,3.1396,3.1402,3.1431,3.1424,3.1437,3.1449,3.1461,3.1494,3.1509,3.1526,3.1491,3.1529,3.1519,3.1529,3.153,3.153,3.1484,3.1482,3.1481,3.148,0,3.1194,3.1214,3.1224,3.124,3.1248,3.1263,3.1281,3.1281,3.1332,3.1337,3.1347,3.1357,3.1376,3.1389,3.1409,3.1428,3.1463,3.1468,3.1464,3.1453,3.1441,3.145,3.1557,3.147,3.1471,3.1472,3.1473,3.1473,3.112,3.1115,3.1144,3.1153,3.1172,3.1188,3.1188,3.1217,3.1226,3.1245,3.1271,3.1279,3.1306,3.1338,3.1354,3.1361,3.1381,3.1374,3.1372,3.137,3.1366,3.1438,3.1365,3.1365,3.1366,3.1366,3.1366,0,3.103,3.1051,3.106,3.1084,3.1093,3.1125,3.1148,3.1153,3.1159,3.1181,3.1193,3.1206,3.122,3.1255,3.1273,3.1272,3.1289,3.1275,3.1277,3.1281,3.1346,3.1349,3.1261,3.1261,3.1262,3.1262,3.1262,3.1262,3.0984,3.0978,3.1002,3.1006,3.1028,3.1036,3.1046,3.1063,3.1081,3.1094,3.1106,3.1129,3.1158,3.1178,3.1193,3.1203,3.1208,3.119,3.1206,3.1266,3.1276,3.1285,3.1289,3.119,3.119,3.1141,3.114,3.114]}]]